"Pseudo-MPEC" for P21OuZE

Created 2023 Dec 2 1:22:06 UT using Find_Orb

Click here for an explanation of pseudo-MPECs

 
 Astrometry: 
     P21OuZE* C2023 11 20i+s+X,W\nh]_ry6TW5AstrometryW#y1feD-h%Iredacted;-#BlF52
     P21OuZE  C2023 11 205)#qwclickkhere/6cbr?OCo`/Z+pdL$3Y[0%q9(BjN+kn-c3#90F52
     P21OuZE  C2023 11 20rSt,8D.#forqfj*HT0?Gl;k@Gr2;explanationYu(6hmbBAnZeVF52

Station data:
(F52) Pan-STARRS 2, Haleakala  (N20.707382 W156.255910)  US/Hawaii.
   Observers J. Bulger, T. Dukes, T. Lowe, A. Schultz, M. Willman. Measurers
   K. Chambers, S. Chastel, T. de Boer, L. Denneau, J. Fairlamb, H.
   Flewelling, M. Huber, C.-C. Lin, E. Magnier, Y. Ramanjooloo, R. Wainscoat,
   R. Weryk. 1.8-m Ritchey-Chrétien + CCD.

Orbital elements:  P21OuZE
   Perihelion 2023 Aug 1.71670 +/- 182 TT = 17:12:02 (JD 2460158.21670)
Epoch 2023 Nov 21.0 TT = JDT 2460269.5   Earth MOID: 0.5437   Sa: 0.4861
M   8.76074103 +/- 57               (J2000 ecliptic)             AutoNEOCP
n   0.07872466 +/- 0.189            Peri.  180.18842 +/- 90
a   5.39173849 +/- 8.65             Node   198.96881 +/- 57
e   0.7140497 +/- 0.275             Incl.   32.19849 +/- 15
P  12.52                   H 18.80  G  0.15   U 11.6  SR
q 1.54176904 +/- 0.966    Q 9.24170794 +/- 39.1
From 3 observations 2023 Nov. 20 (29.7 min); mean residual 0".04
Residuals in arcseconds: 
231120 F52  .03+  .03-    231120 F52  .05-  .06+    231120 F52  .03+  .03-    

Ephemerides (geocentric):
Date (UTC) HH   RA             Dec           delta  r     elong  mag " sig PA
---- --------  ------------   ------------  ------ ------ -----  --- --------
2023 12 02 01  06 21 47.507   -26 05 58.47  1.3353 2.0651 125.0 22.1  33d  73
2023 12 02 02  06 21 45.529   -26 06 24.89  1.3355 2.0654 125.0 22.1  33d  74
2023 12 02 03  06 21 43.550   -26 06 51.25  1.3357 2.0657 125.0 22.1  33d  74
2023 12 02 04  06 21 41.568   -26 07 17.54  1.3359 2.0660 125.0 22.1  33d  74
2023 12 02 05  06 21 39.585   -26 07 43.78  1.3361 2.0663 125.0 22.1  33d  74
2023 12 02 06  06 21 37.599   -26 08 09.96  1.3363 2.0666 125.0 22.1  33d  74
2023 12 02 07  06 21 35.611   -26 08 36.08  1.3365 2.0668 125.1 22.1  33d  75
2023 12 02 08  06 21 33.622   -26 09 02.14  1.3366 2.0671 125.1 22.1  33d  75
2023 12 02 09  06 21 31.630   -26 09 28.14  1.3368 2.0674 125.1 22.1  33d  75
2023 12 02 10  06 21 29.636   -26 09 54.08  1.3370 2.0677 125.1 22.1  34d  76
2023 12 02 11  06 21 27.641   -26 10 19.97  1.3372 2.0680 125.1 22.1  34d  76
2023 12 02 12  06 21 25.643   -26 10 45.79  1.3374 2.0683 125.1 22.1  34d  76
2023 12 02 13  06 21 23.643   -26 11 11.55  1.3376 2.0686 125.1 22.1  34d  77
2023 12 02 14  06 21 21.642   -26 11 37.25  1.3378 2.0689 125.1 22.1  35d  77
2023 12 02 15  06 21 19.638   -26 12 02.90  1.3380 2.0692 125.2 22.1  35d  77
2023 12 02 16  06 21 17.632   -26 12 28.48  1.3382 2.0695 125.2 22.1  35d  77
2023 12 02 17  06 21 15.625   -26 12 54.01  1.3383 2.0697 125.2 22.1  35d  77
2023 12 02 18  06 21 13.615   -26 13 19.47  1.3385 2.0700 125.2 22.1  36d  77
2023 12 02 19  06 21 11.604   -26 13 44.88  1.3387 2.0703 125.2 22.1  36d  77
2023 12 02 20  06 21 09.590   -26 14 10.22  1.3389 2.0706 125.2 22.1  36d  77
2023 12 02 21  06 21 07.575   -26 14 35.51  1.3391 2.0709 125.2 22.1  36d  77
2023 12 02 22  06 21 05.557   -26 15 00.74  1.3393 2.0712 125.3 22.1  37d  77
2023 12 02 23  06 21 03.538   -26 15 25.90  1.3395 2.0715 125.3 22.1  37d  77
2023 12 03 00  06 21 01.517   -26 15 51.01  1.3397 2.0718 125.3 22.1  37d  76
2023 12 03 01  06 20 59.493   -26 16 16.06  1.3399 2.0721 125.3 22.1  38d  76
2023 12 03 02  06 20 57.468   -26 16 41.05  1.3401 2.0724 125.3 22.1  38d  76
2023 12 03 03  06 20 55.441   -26 17 05.98  1.3403 2.0726 125.3 22.1  38d  76
2023 12 03 04  06 20 53.412   -26 17 30.84  1.3405 2.0729 125.3 22.1  39d  76
2023 12 03 05  06 20 51.381   -26 17 55.65  1.3406 2.0732 125.3 22.1  39d  76
2023 12 03 06  06 20 49.349   -26 18 20.40  1.3408 2.0735 125.4 22.1  39d  76
2023 12 03 07  06 20 47.314   -26 18 45.09  1.3410 2.0738 125.4 22.1  40d  76
2023 12 03 08  06 20 45.277   -26 19 09.72  1.3412 2.0741 125.4 22.1  40d  76
2023 12 03 09  06 20 43.239   -26 19 34.29  1.3414 2.0744 125.4 22.1  40d  76
2023 12 03 10  06 20 41.198   -26 19 58.80  1.3416 2.0747 125.4 22.1  40d  77
2023 12 03 11  06 20 39.156   -26 20 23.25  1.3418 2.0750 125.4 22.1  40d  77
2023 12 03 12  06 20 37.112   -26 20 47.64  1.3420 2.0753 125.4 22.1  40d  77
2023 12 03 13  06 20 35.066   -26 21 11.97  1.3422 2.0756 125.4 22.1  41d  77
2023 12 03 14  06 20 33.018   -26 21 36.24  1.3424 2.0758 125.5 22.1  41d  77
2023 12 03 15  06 20 30.969   -26 22 00.45  1.3426 2.0761 125.5 22.1  41d  77
2023 12 03 16  06 20 28.917   -26 22 24.60  1.3428 2.0764 125.5 22.1  41d  77
2023 12 03 17  06 20 26.864   -26 22 48.69  1.3430 2.0767 125.5 22.1  41d  77
2023 12 03 18  06 20 24.809   -26 23 12.72  1.3432 2.0770 125.5 22.1  41d  77
2023 12 03 19  06 20 22.752   -26 23 36.69  1.3434 2.0773 125.5 22.1  41d  77
2023 12 03 20  06 20 20.693   -26 24 00.61  1.3436 2.0776 125.5 22.1  41d  77
2023 12 03 21  06 20 18.632   -26 24 24.46  1.3438 2.0779 125.5 22.1  41d  78
2023 12 03 22  06 20 16.570   -26 24 48.25  1.3440 2.0782 125.6 22.1  41d  78
2023 12 03 23  06 20 14.505   -26 25 11.98  1.3442 2.0785 125.6 22.1  41d  78
2023 12 04 00  06 20 12.439   -26 25 35.65  1.3443 2.0788 125.6 22.1  41d  78